SCP
0 0 0 0 0 0 0 0 0 0 0 0 0 0 0 0 0 0 0 0 0 0 0 0 0 0 0 0 0 0 0 0 0 0 0 0 0 0 0 0 0 0 0 0
0 0 0 0 0 0 0 0 0 0 0 0 0 0 0 0 0 0 0 0 0 0 0 0 0 0 0 0 0 0 0 0 0 0 0 0 0 0 0 0 0 0 0 0
0 0 0 0 0 0 0 0 0 0 0 0 0 0 0 0 0 0 0 0 0 0 0 0 0 0 0 0 0 0 0 0 0 0 0 0 0 0 0 0 0 0 0 0
0 0 0 0 0 0 0 0 0 0 0 0 0 0 0 0 0 0 0 0 0 0 0 0 0 0 0 0 0 0 0 0 0 0 0 0 0 0 0 0 0 0 0 0
0 0 0 0 0 0 0 0 0 0 0 0 0 0 0 0 0 0 0 0 0 0 0 0 0 0 0 0 0 0 0 0 0 0 0 0 0 0 0 0 0 0 0 0
0 0 0 0 0 0 0 0 0 0 0 0 0 0 0 0 0 0 0 0 0 0 0 0 0 0 0 0 0 0 0 0 0 0 0 0 0 0 0 0 0 0 0 0
0 0 0 0 0 0 0 0 0 0 0 0 0 0 0 0 0 0 0 0 0 0 0 0 0 0 0 0 0 0 0 0 0 0 0 0 0 0 0 0 0 0 0 0
0 0 0 0 0 0 0 0 0 0 0 0 0 0 0 0 0 0 0 0 0 0 0 0 0 0 0 0 0 0 0 0 0 0 0 0 0 0 0 0 0 0 0 0
0 0 0 0 0 0 0 0 0 0 0 0 0 0 0 0 0 0 0 0 0 0 0 0 0 0 0 0 0 0 0 0 0 0 0 0 0 0 0 0 0 0 0 0
0 0 0 0 0 0 0 0 0 0 0 0 0 0 0 0 0 0 0 0 0 0 0 0 0 0 0 0 0 0 0 0 0 0 0 0 0 0 0 0 0 0 0 0
0 0 0 0 0 0 0 0 0 0 0 0 0 0 0 0 0 0 0 0 0 0 0 0 0 0 0 0 0 0 0 0 0 0 0 0 0 0 0 0 0 0 0 0
0 0 0 0 0 0 0 0 0 0 0 0 0 0 0 0 0 0 0 0 0 0 0 0 0 0 0 0 0 0 0 0 0 0 0 0 0 0 0 0 0 0 0 0
0 0 0 0 0 0 0 0 0 0 0 0 0 0 0 0 0 0 0 0 0 0 0 0 0 0 0 0 0 0 0 0 0 0 0 0 0 0 0 0 0 0 0 0
0 0 0 0 0 0 0 0 0 0 0 0 0 0 0 0 0 0 0 0 0 0 0 0 0 0 0 0 0 0 0 0 0 0 0 0 0 0 0 0 0 0 0 0
0 0 0 0 0 0 0 0 0 0 0 0 0 0 0 0 0 0 0 0 0 0 0 0 0 0 0 0 0 0 0 0 0 0 0 0 0 0 0 0 0 0 0 0
0 0 0 0 0 0 0 0 0 0 0 0 0 0 0 0 0 0 0 0 0 0 0 0 0 0 0 0 0 0 0 0 0 0 0 0 0 0 0 0 0 0 0 0
0 0 0 0 0 0 0 0 0 0 0 0 0 0 0 0 0 0 0 0 0 0 0 0 0 0 0 0 0 0 0 0 0 0 0 0 0 0 0 0 0 0 0 0
0 0 0 0 0 0 0 0 0 0 0 0 0 0 0 0 0 0 0 0 0 0 0 0 0 0 0 0 0 0 0 0 0 0 0 0 0 0 0 0 0 0 0 0
0 0 0 0 0 0 0 0 0 0 0 0 0 0 0 0 0 0 0 0 0 0 0 0 0 0 0 0 0 0 0 0 0 0 0 0 0 0 0 0 0 0 0 0
0 0 0 0 0 0 0 0 0 0 0 0 0 0 0 0 0 0 0 0 0 0 0 0 0 0 0 0 0 0 0 0 0 0 0 0 0 0 0 0 0 0 0 0
-0 -0 0 0 0 0 0 0 0 0 0 0 0 0 0 0 0 0 0 0 0 0 0 0 0 0 0 0 0 0 0 0 0 0 0 0 0 0 0 0 0 0 0 0
0 0 -0 -0 0 0 0 0 0 0 0 0 0 0 0 0 0 0 0 0 0 0 0 0 0 0 0 0 0 0 0 0 0 0 0 0 0 0 0 0 0 0 0 0
0 0 0 -0 -0 -0 -0 -0 0 0 0 0 0 0 0 0 0 0 0 0 0 0 0 0 0 0 0 0 0 0 0 0 0 0 0 0 0 0 0 0 0 0 0 0
0 0 0 0 0 0 -0 -0 -0 0 0 0 0 0 0 0 0 0 0 0 0 0 0 0 0 0 0 0 0 0 0 0 0 0 0 0 0 0 0 0 0 0 0 0
0 0 0 0 0 0 -0 -0 -0 0 0 0 0 0 0 0 0 0 0 0 0 0 0 0 0 0 0 0 0 0 0 0 0 0 0 0 0 0 0 0 0 0 0 0
0 0 0 0 0 0 0 0 0 0 0 0 0 0 0 0 0 0 0 0 0 0 0 0 0 0 0 0 0 0 0 0 0 0 0 0 0 0 0 0 0 0 0 0
0 0 0 0 0 0 0 0 0 0 0 0 0 0 0 0 0 0 0 0 0 0 0 0 0 0 0 0 0 0 0 0 0 0 0 0 0 0 0 0 0 0 0 0
Wind_Speed
5 3 3 4 5 7 9 9 9 8 9 9 6 5 3 1 1 0 1 1 1 1 1 1 1 1 1 1 1 1 0 0 1 1 1 1 0 0 0 1 1 2 2 2
3 2 3 5 7 9 10 8 9 8 11 7 4 1 1 1 1 1 1 1 1 1 1 2 2 1 2 2 1 1 0 1 1 1 1 1 1 0 0 0 1 1 2 2
3 2 2 8 10 12 8 7 8 11 11 4 3 3 3 2 2 2 2 2 2 2 1 2 2 1 1 1 1 1 1 1 1 1 1 1 1 0 0 1 0 1 1 1
1 2 9 8 3 7 8 6 6 6 5 4 5 4 1 1 2 2 2 2 2 1 1 2 2 1 1 1 1 1 1 1 2 1 1 1 1 1 1 1 1 1 2 2
3 4 9 7 2 4 6 5 4 7 6 4 3 0 1 1 1 2 2 1 1 1 1 1 2 1 1 2 2 2 2 2 2 1 1 1 1 1 1 1 1 1 1 1
4 5 9 5 3 2 3 5 2 3 4 3 1 2 3 2 2 1 1 1 1 1 1 2 2 2 2 2 2 2 3 3 2 2 1 1 2 2 1 1 1 1 1 1
6 7 9 5 3 2 4 5 1 1 2 1 3 3 2 2 2 1 1 1 1 1 1 1 2 2 1 2 2 3 3 3 2 2 2 2 1 1 1 1 1 1 2 2
5 7 10 1 4 5 4 1 1 0 1 1 2 2 2 2 2 1 1 1 1 1 1 2 2 1 1 2 4 3 3 3 3 2 2 1 1 1 0 0 1 1 2 2
9 8 2 3 4 2 0 1 1 1 2 2 2 3 3 2 2 1 1 1 1 1 2 2 2 1 2 4 4 3 3 3 3 3 2 1 1 1 0 1 1 2 2 3
4 6 4 2 2 1 1 1 2 2 3 2 3 3 3 3 2 2 2 1 1 1 2 3 3 2 3 4 4 3 3 3 3 3 3 2 1 1 1 2 2 2 3 3
5 5 2 3 3 2 1 1 2 3 2 3 3 3 3 3 2 2 2 2 1 2 3 4 4 3 4 4 3 3 4 3 3 2 3 3 2 2 3 3 3 4 3 3
7 4 4 3 1 0 1 2 3 3 3 3 2 3 3 3 3 2 2 2 2 2 3 4 4 4 4 3 3 3 3 3 3 3 2 2 2 3 5 5 6 6 6 5
4 2 3 2 1 1 1 2 3 2 2 3 3 2 2 3 3 3 3 3 3 4 4 4 4 5 4 3 3 3 4 4 3 3 3 3 3 3 4 5 6 7 7 7
2 1 2 2 2 2 2 2 2 2 2 2 2 2 2 3 3 3 4 4 4 4 4 4 4 5 5 3 3 4 4 4 3 3 3 3 3 4 3 4 4 4 6 8
3 2 3 2 2 2 2 2 2 3 3 3 3 2 3 3 4 5 4 4 4 4 4 4 5 6 4 3 4 5 4 4 3 4 3 4 4 3 4 4 4 4 4 5
3 1 1 1 2 2 2 2 2 4 3 3 3 4 4 4 5 5 4 3 3 5 5 5 6 6 4 4 4 4 4 5 4 4 4 4 4 4 4 4 4 4 5 4
1 2 2 3 4 4 3 3 3 4 4 4 4 4 4 4 4 5 5 4 5 6 5 6 7 6 4 4 4 4 4 4 5 4 4 4 4 5 5 4 5 5 5 6
2 2 2 3 3 4 4 3 3 3 4 4 4 4 4 4 5 6 6 5 5 5 5 5 6 5 5 5 4 4 4 4 4 4 4 5 5 5 5 5 5 6 5 5
2 2 2 2 2 2 3 3 3 4 4 3 3 4 5 5 5 6 5 5 5 7 6 4 7 5 5 6 5 4 4 4 4 4 4 5 5 4 5 5 5 5 5 4
2 2 2 2 2 2 2 3 3 3 3 3 3 4 4 5 5 5 5 5 5 5 5 5 5 5 5 5 5 4 4 5 5 5 4 4 5 5 5 5 5 5 5 5
2 2 2 2 3 3 3 3 3 4 4 3 3 4 5 6 5 4 4 6 5 4 5 6 5 5 5 4 5 4 4 5 5 5 5 5 5 5 5 5 5 5 5 5
2 2 3 3 3 4 4 3 3 4 4 4 4 4 5 6 5 5 5 6 6 6 5 5 5 6 6 6 4 4 4 4 5 4 5 5 5 5 6 6 5 5 5 5
2 2 3 3 3 4 4 4 4 4 4 5 5 5 5 5 4 5 6 5 5 7 6 5 7 9 8 5 4 4 4 5 5 5 5 5 5 5 6 6 6 5 5 5
3 3 3 3 2 3 4 5 4 4 4 5 5 5 5 5 5 5 5 7 7 8 6 7 10 9 7 4 4 4 4 5 5 5 5 5 4 4 5 5 5 5 5 6
3 3 2 2 3 3 4 5 5 4 4 4 5 5 4 4 5 5 5 6 8 8 6 8 10 9 5 4 4 4 5 5 5 5 5 5 5 5 5 5 5 5 5 5
2 3 3 3 3 3 3 3 4 4 4 5 5 4 4 4 5 5 5 6 7 7 6 5 5 6 4 4 5 5 5 5 5 5 5 5 5 5 5 5 6 5 5 5
3 2 2 3 3 3 3 3 4 5 4 5 6 6 5 5 5 5 6 5 5 5 5 5 4 4 4 5 5 5 5 5 5 5 5 5 5 5 5 6 6 5 5 6
Wind_Direction
255 255 200 214 220 202 209 213 217 234 234 252 252 244 248 264 300 5 352 337 293 287 303 322 342 341 339 334 352 21 103 169 268 296 313 321 303 258 209 193 203 202 202 215
286 275 242 256 239 218 229 234 239 255 263 263 272 264 270 269 245 243 276 287 294 315 334 330 331 334 338 336 349 24 26 299 324 350 355 328 303 321 97 227 222 190 204 213
254 315 355 263 224 206 210 212 205 232 246 252 254 241 234 228 216 230 255 272 281 279 285 305 312 319 297 311 358 32 12 348 348 352 340 311 317 343 269 255 272 247 246 233
189 95 234 242 197 194 204 227 220 239 258 252 240 238 220 164 193 251 277 283 284 296 312 314 315 337 351 17 31 32 3 343 345 344 320 328 334 299 290 288 259 253 268 257
171 219 267 286 242 178 197 245 235 238 258 275 294 58 330 347 263 240 252 266 272 275 316 341 353 0 32 33 28 19 345 327 320 310 305 313 291 282 285 280 274 275 290 281
181 202 238 253 262 244 160 249 270 224 245 252 140 245 271 322 311 293 312 341 352 17 36 23 3 16 43 24 13 332 313 310 313 303 284 265 261 271 285 260 258 271 290 292
210 229 255 269 287 117 181 247 320 214 242 223 202 237 287 331 323 314 329 356 36 54 29 357 6 28 27 0 320 309 317 318 320 305 283 270 268 285 289 262 281 287 292 300
189 221 249 280 127 171 220 304 82 343 271 259 256 292 307 303 303 328 350 5 19 23 349 355 12 22 346 317 316 325 321 314 309 305 295 287 272 286 309 273 270 286 297 300
197 215 218 152 178 211 243 221 282 289 289 280 281 287 296 295 300 315 314 323 350 344 333 344 352 350 301 314 329 324 316 307 309 311 304 296 265 254 255 238 249 266 270 278
234 250 252 237 237 299 307 258 294 300 295 280 277 284 294 291 290 294 308 314 337 337 315 315 323 320 310 321 325 317 307 306 309 305 303 297 274 251 240 233 239 252 263 270
241 254 277 242 221 235 260 300 311 309 301 290 280 282 286 287 286 290 301 305 294 275 278 290 306 310 318 321 321 312 306 305 301 294 291 285 273 255 248 243 238 238 245 251
233 225 218 239 196 149 245 280 280 290 306 313 285 278 288 286 292 298 299 303 297 290 288 293 299 300 307 312 307 296 295 296 290 288 285 281 283 292 286 277 279 272 272 271
249 260 232 248 259 297 277 297 304 299 291 305 311 298 290 291 299 301 293 285 280 281 284 289 290 290 297 303 293 279 277 282 283 282 278 275 271 271 286 293 286 286 282 281
257 268 261 260 271 306 309 314 324 332 329 323 320 327 315 301 298 292 289 290 290 288 287 285 282 282 290 291 279 272 275 276 273 269 268 268 263 262 262 269 281 282 282 280
299 270 249 280 319 346 343 345 335 320 329 332 331 320 312 301 295 295 299 302 300 291 286 285 281 284 293 282 273 270 270 270 269 268 263 262 261 261 260 258 263 275 289 285
308 315 326 319 309 327 333 323 299 299 312 313 312 309 304 296 293 295 297 297 288 284 283 281 278 283 291 280 275 271 267 271 270 267 263 260 255 252 254 255 258 262 263 268
333 306 298 292 291 300 297 290 284 290 300 298 300 306 309 306 301 297 297 296 282 277 276 276 279 285 282 274 268 269 271 273 270 265 257 255 252 248 251 249 251 255 259 262
282 279 275 264 275 289 300 304 296 293 290 293 302 306 300 293 290 293 299 305 301 293 281 276 280 285 282 279 273 269 267 266 261 259 261 260 256 251 249 250 251 256 267 272
328 315 317 309 299 293 297 301 300 295 295 300 303 297 292 289 288 292 299 299 295 292 292 290 297 297 281 276 276 265 264 266 267 265 263 268 267 258 251 250 253 253 256 259
336 332 324 318 320 304 294 299 303 302 299 296 297 300 300 295 296 296 293 281 269 273 291 297 295 286 281 282 286 268 263 263 264 267 265 263 264 264 261 257 255 254 251 250
320 319 316 311 312 310 299 301 305 301 302 300 286 284 288 292 294 289 287 286 285 285 290 289 286 283 282 282 277 267 262 263 264 263 261 262 262 264 263 262 261 258 255 255
311 309 304 304 308 307 308 307 299 296 301 300 293 288 293 297 298 291 269 266 290 302 300 289 285 285 287 285 272 266 264 264 266 267 265 263 260 261 263 263 263 264 263 262
293 289 291 294 293 297 309 306 297 295 294 293 292 290 286 285 285 285 289 286 292 296 295 285 288 292 292 283 273 270 268 266 266 265 264 265 264 262 264 265 265 263 264 264
291 293 291 297 306 310 305 302 302 292 286 286 281 279 281 290 286 265 270 292 298 297 291 288 293 297 298 286 277 274 271 269 268 268 268 268 264 264 265 267 269 267 264 264
288 292 302 313 305 290 289 300 304 300 299 294 290 285 276 264 268 283 288 289 294 298 293 296 300 301 296 282 276 273 273 270 269 270 269 268 267 266 266 266 266 269 270 269
287 282 277 270 272 282 293 298 297 299 302 301 299 293 289 286 281 284 288 289 288 290 289 291 291 291 284 280 277 275 274 276 275 272 270 270 270 269 269 269 268 267 268 269
289 288 291 295 287 280 283 283 284 287 286 286 293 295 295 294 292 291 289 289 289 287 286 287 286 283 282 281 281 279 276 274 272 272 272 270 269 269 270 270 272 273 273 273